This demonstration page uses our WeatherBlox Daily Observations layout. Learn more.

39.92423, -83.80882

Hourly Observations for June 26, 2019

Temp ( °F °C ) Dew Point ( °F °C ) Humidity (%) Winds ( mph kmh ) Pressure ( in mb ) Visibility ( mi km ) Precip ( " mm )
12:56 am 00:56 Clear 68 20 62 16.7 81 81 SW 7 11 30.05 1018 10 16.0934 0 0
1:56 am 01:56 Clear 68 20 62 16.7 81 81 SW 7 11 30.04 1017 10 16.0934 0 0
2:56 am 02:56 Clear 66 18.9 62 16.7 87 87 SSW 6 9 30.04 1017 10 16.0934 0 0
3:56 am 03:56 Mostly Clear 67 19.4 63 17.2 87 87 SW 7 11 30.06 1018 10 16.0934 0 0
4:56 am 04:56 Clear 66 18.9 63 17.2 90 90 SSW 5 7 30.05 1018 10 16.0934 0 0
5:56 am 05:56 Clear 67 19.4 63 17.2 87 87 SSW 8 13 30.06 1018 10 16.0934 0 0
6:56 am 06:56 Sunny 66 18.9 63 17.2 90 90 SW 10 17 30.09 1019 10 16.0934 0 0
7:56 am 07:56 Sunny 69 20.6 65 18.3 87 87 WSW 8 13 30.1 1019 10 16.0934 0 0
8:56 am 08:56 Sunny 72 22.2 66 18.9 82 82 WSW 8 13 30.12 1020 10 16.0934 0 0
9:56 am 09:56 Sunny 76 24.4 67 19.4 74 74 WSW 13 20 30.12 1020 10 16.0934 0 0
10:56 am 10:56 Sunny 79 26.1 66 18.9 65 65 W 9 15 30.12 1020 10 16.0934 0 0
11:56 am 11:56 Sunny 82 27.8 68 20 63 63 W 7 11 30.13 1020 10 16.0934 0 0
12:56 pm 12:56 Sunny 83 28.3 67 19.4 59 59 WSW 6 9 30.12 1020 10 16.0934 0 0
1:56 pm 13:56 Sunny 85 29.4 66 18.9 53 53 W 12 19 30.11 1020 10 16.0934 0 0
2:56 pm 14:56 Sunny 86 30 66 18.9 51 51 W 13 20 30.11 1020 10 16.0934 0 0
3:56 pm 15:56 Partly Cloudy 87 30.6 66 18.9 50 50 WSW 9 15 30.11 1020 10 16.0934 0 0
4:56 pm 16:56 Sunny 88 31.1 67 19.4 50 50 W 10 17 30.09 1019 10 16.0934 0 0
5:56 pm 17:56 Partly Cloudy 87 30.6 66 18.9 50 50 WSW 12 19 30.09 1019 10 16.0934 0 0
6:56 pm 18:56 Sunny 86 30 66 18.9 51 51 SW 8 13 30.09 1019 10 16.0934 0 0
7:56 pm 19:56 Sunny 85 29.4 68 20 57 57 SSW 6 9 30.09 1019 10 16.0934 0 0
8:56 pm 20:56 Sunny 80 26.7 69 20.6 69 69 SW 5 7 30.1 1019 10 16.0934 0 0
9:56 pm 21:56 Clear 77 25 69 20.6 77 77 SW 5 7 30.12 1020 10 16.0934 0 0
10:56 pm 22:56 Clear 76 24.4 68 20 77 77 SSW 6 9 30.13 1020 10 16.0934 0 0
11:56 pm 23:56 Clear 75 23.9 68 20 79 79 SW 7 11 30.14 1021 10 16.0934 0 0

Powered by AerisWeather